Latest Weather Observations for Roseworthy

IDS60901

Issued at 3:25 pm CST Saturday 19 April 2014 (issued every 10 minutes, with the page automatically refreshed every 10 minutes)

About weather observations | Map of Adelaide area stations | Latest observations for Adelaide area | Other Formats
Station Details ID: 023122 Name: ROSEWORTHY AWS Lat: -34.51 Lon: 138.68 Height: 65.0 m
Data from the previous 72 hours. | See also: Recent months at Roseworthy
Date/Time
CST
Tmp

°C
App
Tmp
°C
Dew
Point
°C
Rel
Hum
%
Delta-T

°C
Wind Press
QNH
hPa
Press
MSL
hPa
Rain
since
9 am
mm
Dir
 
Spd
km/h
Gust
km/h
Spd
kts
Gust
kts
19/03:00pm 19.0 15.5 3.6 36 7.3 ENE 11 15 6 8 1018.3 1018.3 0.0
19/02:30pm 18.9 15.6 2.3 33 7.6 E 9 15 5 8 1018.5 - 0.0
19/02:00pm 18.6 15.5 3.6 37 7.1 SE 9 17 5 9 1018.6 - 0.0
19/01:30pm 18.6 15.1 3.6 37 7.1 NNE 11 17 6 9 1019.1 - 0.0
19/01:00pm 17.4 13.9 3.3 39 6.5 NNE 11 20 6 11 1019.8 - 0.0
19/12:30pm 17.5 14.4 3.8 40 6.4 NNW 9 19 5 10 1020.3 - 0.0
19/12:00pm 17.6 14.1 3.5 39 6.5 N 11 17 6 9 1021.1 1021.1 0.0
19/11:30am 17.6 12.8 4.5 42 6.2 NE 19 26 10 14 1021.5 - 0.0
19/11:00am 17.6 13.5 4.5 42 6.2 ENE 15 26 8 14 1021.9 - 0.0
19/10:30am 16.5 11.9 3.9 43 5.9 ENE 17 32 9 17 1022.2 - 0.0
19/10:00am 15.9 11.4 6.1 52 4.8 NE 19 22 10 12 1022.6 - 0.0
19/09:30am 15.0 10.7 7.1 59 3.9 NE 19 22 10 12 1023.0 - 0.0
19/09:00am 13.7 10.1 8.3 70 2.7 NE 17 20 9 11 1023.2 1023.2 0.8
19/08:30am 12.6 8.9 8.1 74 2.2 NE 17 20 9 11 1023.0 - 0.8
19/08:00am 11.2 8.3 8.1 81 1.5 NE 13 17 7 9 1022.8 - 0.8
19/07:30am 9.0 5.3 6.4 84 1.2 NE 15 17 8 9 1022.6 - 0.8
19/07:00am 7.7 5.0 5.7 87 0.9 E 9 13 5 7 1022.4 - 0.8
19/06:30am 7.3 5.1 5.1 86 1.0 ENE 6 9 3 5 1022.3 - 0.8
19/06:00am 7.9 4.9 5.9 87 0.9 E 11 15 6 8 1022.2 1022.2 0.8
19/05:30am 7.6 3.8 5.7 88 0.9 NE 15 17 8 9 1021.9 - 0.8
19/05:00am 6.9 3.7 5.2 89 0.8 NNE 11 15 6 8 1021.9 - 0.6
19/04:30am 6.8 3.6 5.1 89 0.7 N 11 13 6 7 1021.8 - 0.6
19/04:00am 6.6 4.3 4.6 87 0.9 E 6 7 3 4 1021.8 - 0.6
19/03:30am 7.4 4.9 5.0 85 1.1 E 7 9 4 5 1021.8 - 0.6
19/03:00am 7.7 4.5 5.3 85 1.1 ENE 11 15 6 8 1021.9 1021.9 0.6
19/02:30am 8.0 4.2 5.6 85 1.1 NE 15 17 8 9 1021.9 - 0.6
19/02:00am 7.7 4.2 5.5 86 1.0 ENE 13 15 7 8 1022.3 - 0.6
19/01:30am 7.6 5.2 5.4 86 1.0 ENE 7 11 4 6 1022.6 - 0.6
19/01:00am 7.2 4.4 5.3 88 0.8 NE 9 13 5 7 1022.7 - 0.6
19/12:30am 7.1 3.9 5.3 88 0.8 NE 11 15 6 8 1022.7 - 0.6
19/12:00am 6.7 3.8 4.9 88 0.8 ENE 9 11 5 6 1022.8 1022.8 0.6
 
Date/Time
CST
Tmp

°C
App
Tmp
°C
Dew
Point
°C
Rel
Hum
%
Delta-T

°C
Wind Press
QNH
hPa
Press
MSL
hPa
Rain
since
9 am
mm
Dir
 
Spd
km/h
Gust
km/h
Spd
kts
Gust
kts
18/11:30pm 7.2 4.0 5.3 88 0.8 ENE 11 11 6 6 1022.9 - 0.6
18/11:00pm 7.2 4.0 5.2 87 0.9 NE 11 11 6 6 1023.0 - 0.6
18/10:30pm 8.3 4.9 6.1 86 1.0 NE 13 15 7 8 1023.2 - 0.6
18/10:00pm 7.3 4.5 5.1 86 1.0 E 9 11 5 6 1023.2 - 0.6
18/09:30pm 8.5 6.2 5.8 83 1.2 ESE 7 9 4 5 1023.2 - 0.6
18/09:00pm 8.5 6.1 5.4 81 1.4 E 7 9 4 5 1023.1 1023.1 0.6
18/08:30pm 9.7 7.0 5.7 76 1.8 ESE 9 11 5 6 1023.0 - 0.6
18/08:00pm 11.0 8.8 6.2 72 2.2 ESE 7 9 4 5 1022.8 - 0.6
18/07:30pm 12.4 9.9 6.5 67 2.8 SE 9 11 5 6 1022.7 - 0.6
18/07:00pm 14.5 11.6 6.3 58 4.0 SSE 11 17 6 9 1022.5 - 0.6
18/06:30pm 15.0 12.7 7.3 60 3.8 S 9 13 5 7 1022.2 - 0.6
18/06:00pm 15.9 11.6 7.7 58 4.1 SSW 20 30 11 16 1021.9 1021.9 0.6
18/05:30pm 16.9 12.5 7.3 53 4.8 SSW 20 30 11 16 1021.4 - 0.6
18/05:00pm 17.9 12.8 7.6 51 5.2 SSW 24 35 13 19 1021.2 - 0.6
18/04:30pm 18.5 13.1 7.9 50 5.4 SW 26 33 14 18 1021.0 - 0.6
18/04:00pm 18.9 13.4 7.4 47 5.9 SW 26 35 14 19 1021.0 - 0.4
18/03:30pm 19.3 13.5 6.4 43 6.5 SW 26 35 14 19 1020.9 - 0.4
18/03:00pm 19.2 14.2 8.2 49 5.7 SW 24 35 13 19 1020.9 1020.9 0.4
18/02:30pm 19.7 15.2 8.4 48 5.9 SW 22 30 12 16 1020.8 - 0.4
18/02:00pm 19.6 14.6 8.0 47 6.0 SW 24 33 13 18 1020.7 - 0.4
18/01:30pm 19.4 14.3 9.3 52 5.3 WSW 26 35 14 19 1020.8 - 0.4
18/01:00pm 19.9 15.9 11.9 60 4.5 SW 24 35 13 19 1020.8 - 0.2
18/12:30pm 18.9 14.4 10.2 57 4.7 SW 24 35 13 19 1021.1 - 0.2
18/12:00pm 19.6 14.7 9.8 53 5.2 WSW 26 35 14 19 1021.4 1021.4 0.2
18/11:30am 19.3 15.4 10.8 58 4.6 SSW 22 32 12 17 1021.5 - 0.2
18/11:00am 19.0 15.2 11.3 61 4.2 SSW 22 33 12 18 1021.5 - 0.2
18/10:30am 18.0 15.7 14.1 78 2.2 SSW 19 30 10 16 1021.6 - 0.2
18/10:00am 17.5 16.0 14.2 81 1.9 SW 15 19 8 10 1021.6 - 0.2
18/09:30am 16.7 15.7 14.7 88 1.2 SSW 13 17 7 9 1021.5 - 0.0
18/09:00am 15.4 14.2 13.9 91 0.8 SW 13 19 7 10 1021.6 1021.6 0.0
18/08:30am 16.2 14.0 14.4 89 1.0 NW 19 24 10 13 1020.8 - 0.0
18/08:00am 15.4 13.9 14.1 92 0.7 NNW 15 17 8 9 1020.4 - 0.0
18/07:30am 14.8 12.7 13.5 92 0.7 N 17 19 9 10 1020.3 - 0.0
18/07:00am 14.2 12.3 13.1 93 0.6 N 15 17 8 9 1020.0 - 0.0
18/06:30am 13.7 11.7 12.6 93 0.6 N 15 17 8 9 1019.9 - 0.0
18/06:00am 13.4 12.0 12.3 93 0.6 NNW 11 13 6 7 1020.0 1020.0 0.0
18/05:30am 12.3 10.6 11.2 93 0.6 NNW 11 13 6 7 1019.9 - 0.0
18/05:00am 12.4 10.3 11.3 93 0.6 N 13 13 7 7 1019.6 - 0.0
18/04:30am 12.3 10.5 11.0 92 0.7 NW 11 11 6 6 1019.4 - 0.0
18/04:00am 13.1 11.6 11.8 92 0.7 WNW 11 13 6 7 1019.4 - 0.0
18/03:30am 13.0 11.4 11.6 91 0.7 W 11 11 6 6 1019.2 - 0.0
18/03:00am 13.5 12.0 11.9 90 0.9 NW 11 13 6 7 1019.2 1019.2 0.0
18/02:30am 13.5 11.6 11.9 90 0.9 NNW 13 13 7 7 1019.0 - 0.0
18/02:00am 12.9 10.7 10.8 87 1.1 NNW 13 13 7 7 1019.2 - 0.0
18/01:30am 13.6 11.9 11.3 86 1.2 N 11 13 6 7 1019.1 - 0.0
18/01:00am 13.5 11.4 11.0 85 1.3 N 13 13 7 7 1019.0 - 0.0
18/12:30am 13.9 11.4 11.1 83 1.5 N 15 17 8 9 1018.9 - 0.0
18/12:00am 14.0 12.6 10.8 81 1.7 NNW 9 9 5 5 1019.1 1019.1 0.0
 
Date/Time
CST
Tmp

°C
App
Tmp
°C
Dew
Point
°C
Rel
Hum
%
Delta-T

°C
Wind Press
QNH
hPa
Press
MSL
hPa
Rain
since
9 am
mm
Dir
 
Spd
km/h
Gust
km/h
Spd
kts
Gust
kts
17/11:30pm 14.3 12.6 11.3 82 1.6 NNW 11 15 6 8 1019.5 - 0.0
17/11:00pm 14.4 12.8 11.7 84 1.5 N 11 15 6 8 1019.6 - 0.0
17/10:30pm 14.4 12.8 11.7 84 1.5 N 11 13 6 7 1019.7 - 0.0
17/10:00pm 15.1 14.0 11.9 81 1.7 N 9 9 5 5 1019.7 - 0.0
17/09:30pm 15.4 14.0 12.2 81 1.7 N 11 13 6 7 1019.7 - 0.0
17/09:00pm 15.0 13.5 11.8 81 1.7 NE 11 13 6 7 1019.7 1019.7 0.0
17/08:30pm 15.1 13.5 11.7 80 1.8 NE 11 11 6 6 1019.4 - 0.0
17/08:00pm 15.3 14.1 11.5 78 2.0 ENE 9 9 5 5 1019.3 - 0.0
17/07:30pm 15.4 14.6 11.6 78 2.1 E 7 7 4 4 1019.1 - 0.0
17/07:00pm 16.2 15.5 11.4 73 2.6 ESE 6 7 3 4 1019.0 - 0.0
17/06:30pm 18.8 18.2 11.6 63 4.0 S 6 7 3 4 1018.8 - 0.0
17/06:00pm 19.7 18.5 11.5 59 4.5 SSW 9 11 5 6 1018.7 1018.7 0.0
17/05:30pm 21.2 19.1 11.0 52 5.6 SW 13 17 7 9 1018.6 - 0.0
17/05:00pm 22.5 19.7 11.3 49 6.3 WSW 17 20 9 11 1018.4 - 0.0
17/04:30pm 23.6 21.8 11.0 45 7.0 W 11 17 6 9 1018.3 - 0.0
17/04:00pm 23.9 21.5 10.2 42 7.6 W 13 20 7 11 1018.5 - 0.0
17/03:30pm 23.8 20.6 9.8 41 7.7 W 17 26 9 14 1018.7 - 0.0
17/03:00pm 24.0 21.6 9.9 41 7.7 WNW 13 19 7 10 1018.8 1018.8 0.0
17/02:30pm 23.5 20.8 8.8 39 7.9 W 13 19 7 10 1019.1 - 0.0
17/02:00pm 23.2 20.4 11.3 47 6.7 WSW 17 24 9 13 1019.3 - 0.0
17/01:30pm 23.5 21.4 11.2 46 6.9 W 13 20 7 11 1019.6 - 0.0
17/01:00pm 23.6 21.5 9.9 42 7.5 W 11 24 6 13 1020.0 - 0.0
17/12:30pm 23.4 21.3 11.1 46 6.9 WNW 13 35 7 19 1020.3 - 0.0
17/12:00pm 22.8 22.1 12.1 51 6.0 NW 7 13 4 7 1020.7 1020.7 0.0
17/11:30am 21.6 20.4 11.6 53 5.6 W 9 13 5 7 1021.2 - 0.0
17/11:00am 21.2 20.4 11.2 53 5.5 N 6 9 3 5 1021.2 - 0.0
17/10:30am 20.7 20.2 10.8 53 5.4 N 4 9 2 5 1021.2 - 0.0
17/10:00am 19.8 19.2 11.6 59 4.5 N 6 9 3 5 1021.2 - 0.0
17/09:30am 19.0 18.3 12.0 64 3.9 NNE 7 13 4 7 1021.3 - 0.0
17/09:00am 17.8 16.3 12.0 69 3.2 NNE 11 13 6 7 1021.4 1021.4 0.0
17/08:30am 16.3 14.8 11.9 75 2.4 NNE 11 13 6 7 1021.3 - 0.0
17/08:00am 13.7 11.4 10.3 80 1.8 NE 13 15 7 8 1021.3 - 0.0
17/07:30am 11.8 10.0 9.4 85 1.2 ENE 9 11 5 6 1021.2 - 0.0
17/07:00am 9.7 7.6 8.1 90 0.8 ENE 9 11 5 6 1020.9 - 0.0
17/06:30am 9.5 6.5 7.8 89 0.8 NE 13 13 7 7 1020.5 - 0.0
17/06:00am 9.5 7.2 7.6 88 0.9 ENE 9 11 5 6 1020.4 1020.4 0.0
17/05:30am 9.6 6.6 7.7 88 0.9 NE 13 15 7 8 1020.2 - 0.0
17/05:00am 10.0 6.8 8.3 89 0.8 NNE 15 15 8 8 1020.1 - 0.0
17/04:30am 9.3 6.7 7.7 90 0.8 NE 11 13 6 7 1020.0 - 0.0
17/04:00am 9.3 6.3 7.7 90 0.8 NE 13 13 7 7 1019.8 - 0.0
17/03:30am 8.8 6.5 7.3 90 0.7 NE 9 11 5 6 1019.7 - 0.0
17/03:00am 9.2 6.9 7.6 90 0.8 ENE 9 9 5 5 1019.8 1019.8 0.0
17/02:30am 9.1 7.2 7.4 89 0.8 NE 7 9 4 5 1019.9 - 0.0
17/02:00am 9.4 7.2 7.7 89 0.8 NE 9 9 5 5 1020.1 - 0.0
17/01:30am 9.7 7.5 8.0 89 0.8 ENE 9 9 5 5 1020.2 - 0.0
17/01:00am 9.6 7.0 7.7 88 0.9 NNE 11 13 6 7 1020.1 - 0.0
17/12:30am 10.0 9.6 8.1 88 0.9 CALM 0 0 0 0 1020.2 - 0.0
17/12:00am 10.2 8.6 8.0 86 1.1 NE 6 7 3 4 1020.0 1020.0 0.0
 
Date/Time
CST
Tmp

°C
App
Tmp
°C
Dew
Point
°C
Rel
Hum
%
Delta-T

°C
Wind Press
QNH
hPa
Press
MSL
hPa
Rain
since
9 am
mm
Dir
 
Spd
km/h
Gust
km/h
Spd
kts
Gust
kts
16/11:30pm 10.6 8.5 8.2 85 1.2 NNE 9 11 5 6 1020.1 - 0.0
16/11:00pm 11.1 9.0 8.3 83 1.4 NNE 9 11 5 6 1020.2 - 0.0
16/10:30pm 11.1 9.7 8.8 86 1.1 NNE 6 9 3 5 1020.3 - 0.0
16/10:00pm 11.7 10.2 8.6 81 1.5 NE 6 9 3 5 1020.2 - 0.0
16/09:30pm 11.9 9.2 8.9 82 1.5 NE 13 13 7 7 1020.0 - 0.0
16/09:00pm 11.7 10.1 8.7 82 1.5 ENE 7 9 4 5 1019.9 1019.9 0.0
16/08:30pm 12.0 10.4 8.8 81 1.6 E 7 9 4 5 1019.7 - 0.0
16/08:00pm 12.6 10.7 8.9 78 1.9 ENE 9 11 5 6 1019.5 - 0.0
16/07:30pm 12.7 11.2 9.0 78 1.9 E 7 9 4 5 1019.4 - 0.0
16/07:00pm 13.2 11.7 9.1 76 2.1 E 7 7 4 4 1019.3 - 0.0
16/06:30pm 14.8 14.5 8.7 67 3.1 CALM 0 0 0 0 1019.1 - 0.0
16/06:00pm 17.6 16.1 8.5 55 4.7 SSW 6 9 3 5 1018.9 1018.9 0.0
16/05:30pm 19.5 17.5 8.5 49 5.7 SW 9 13 5 7 1018.8 - 0.0
16/05:00pm 20.5 16.4 7.8 44 6.6 WSW 19 26 10 14 1018.7 - 0.0
16/04:30pm 21.9 17.7 7.3 39 7.6 WSW 19 24 10 13 1018.4 - 0.0
16/04:00pm 23.1 18.8 6.8 35 8.4 W 19 24 10 13 1018.2 - 0.0
16/03:30pm 23.2 18.2 6.5 34 8.6 WSW 22 32 12 17 1018.3 - 0.0

Latest Capital City Observations: Canberra | Sydney | Melbourne | Brisbane | Adelaide | Perth | Hobart | Darwin

Other Formats:

Comma delimited format used in spreadsheet applications
http://www.bom.gov.au/fwo/IDS60901/IDS60901.95671.axf

JavaScript Object Notation format (JSON) in row-major order
http://www.bom.gov.au/fwo/IDS60901/IDS60901.95671.json